This is the latest recevied weather packets stored in our database for station/object KB9MLJ. If no packets are shown the sender has not sent any weather packets the latest 10 day(s).
| Time | Temp. | Humidity | Pressure | Rain* | Wind** | Luminosity | Snow |
|---|---|---|---|---|---|---|---|
| 1777473971 | 13.89° C | 73% | 1012.7 hPa | 0 mm | - | 677 W/m² | - |
| 1777473669 | 13.33° C | 72% | 1013 hPa | 0 mm | - | 651 W/m² | - |
| 1777473365 | 13.89° C | 73% | 1012.7 hPa | 0 mm | - | 639 W/m² | - |
| 1777473061 | 13.33° C | 74% | 1012.7 hPa | 0 mm | - | 600 W/m² | - |
| 1777472757 | 12.78° C | 74% | 1012.7 hPa | 0 mm | - | 485 W/m² | - |
| 1777472454 | 13.89° C | 75% | 1012.7 hPa | 0 mm | - | 596 W/m² | - |
| 1777472152 | 12.78° C | 77% | 1013 hPa | 0 mm | - | 586 W/m² | - |
| 1777471851 | 13.33° C | 76% | 1013 hPa | 0 mm | - | 550 W/m² | - |
| 1777471548 | 12.78° C | 77% | 1012.7 hPa | 0 mm | - | 499 W/m² | - |
| 1777471245 | 12.78° C | 77% | 1012.7 hPa | 0 mm | - | 484 W/m² | - |
| 1777470942 | 12.78° C | 77% | 1012.7 hPa | 0 mm | - | 460 W/m² | - |
| 1777470639 | 12.78° C | 77% | 1012.7 hPa | 0 mm | - | 431 W/m² | - |
| 1777470334 | 12.78° C | 78% | 1012.7 hPa | 0 mm | - | 392 W/m² | - |
| 1777470032 | 12.78° C | 79% | 1012.7 hPa | 0 mm | - | 360 W/m² | - |
| 1777469727 | 12.22° C | 79% | 1012.7 hPa | 0 mm | - | 348 W/m² | - |
| 1777469424 | 12.22° C | 81% | 1012.7 hPa | 0 mm | - | 308 W/m² | - |
| 1777469119 | 12.22° C | 83% | 1013 hPa | 0 mm | - | 272 W/m² | - |
| 1777468818 | 11.67° C | 83% | 1013 hPa | 0 mm | - | 321 W/m² | - |
| 1777468516 | 11.67° C | 84% | 1013 hPa | 0 mm | - | 315 W/m² | - |
| 1777468212 | 11.11° C | 84% | 1013 hPa | 0 mm | - | 98 W/m² | - |
| 1777467909 | 11.11° C | 84% | 1013 hPa | 0 mm | - | 109 W/m² | - |
| 1777467604 | 11.11° C | 84% | 1013 hPa | 0 mm | - | 118 W/m² | - |
| 1777467300 | 11.11° C | 85% | 1013 hPa | 0 mm | - | 105 W/m² | - |
| 1777466995 | 11.11° C | 85% | 1013 hPa | 0 mm | - | 99 W/m² | - |
| 1777466693 | 11.11° C | 85% | 1013 hPa | 0 mm | - | 85 W/m² | - |
* Rain latest hour (hover to see other rain measurements)
** Current wind speed in m/s (hover to see current wind gust speed)